Time,TemperatureF,DewpointF,PressureIn,WindDirection,WindDirectionDegrees,WindSpeedMPH,WindSpeedGustMPH,Humidity,HourlyPrecipIn,Conditions,Clouds,dailyrainin,SoftwareType,DateUTC
2015-01-28 00:23:00,57.0,52.0,30.03,SSW,209,0.0,3.0,84,0.00,,,0.00,,2015-01-28 05:23:00,
2015-01-28 00:43:00,56.0,52.0,30.03,West,264,0.0,3.0,85,0.00,,,0.00,,2015-01-28 05:43:00,
2015-01-28 00:52:00,56.0,52.0,30.03,West,264,0.0,2.0,85,0.00,,,0.00,,2015-01-28 05:52:00,
2015-01-28 01:12:00,56.0,52.0,30.03,WSW,243,0.0,1.0,85,0.00,,,0.00,,2015-01-28 06:12:00,
2015-01-28 01:22:00,56.0,52.0,30.03,WSW,243,0.0,1.0,86,0.00,,,0.00,,2015-01-28 06:22:00,
2015-01-28 01:42:00,55.0,51.0,30.03,WSW,244,0.0,2.0,86,0.00,,,0.00,,2015-01-28 06:42:00,
2015-01-28 01:52:00,56.0,52.0,30.03,WSW,244,0.0,2.0,87,0.00,,,0.00,,2015-01-28 06:52:00,
2015-01-28 02:12:00,56.0,52.0,30.03,WSW,244,0.0,2.0,87,0.00,,,0.00,,2015-01-28 07:12:00,
2015-01-28 02:23:00,56.0,52.0,30.03,NW,313,0.0,2.0,87,0.00,,,0.00,,2015-01-28 07:23:00,
2015-01-28 02:42:00,56.0,52.0,30.03,NW,312,0.0,2.0,87,0.00,,,0.00,,2015-01-28 07:42:00,
2015-01-28 02:52:00,55.0,51.0,30.04,NW,310,0.0,2.0,87,0.00,,,0.00,,2015-01-28 07:52:00,
2015-01-28 03:12:00,55.0,51.0,30.04,NW,309,0.0,1.0,87,0.00,,,0.00,,2015-01-28 08:12:00,
2015-01-28 03:22:00,54.0,50.0,30.04,NW,325,0.0,2.0,87,0.00,,,0.00,,2015-01-28 08:22:00,
2015-01-28 03:42:00,54.0,50.0,30.04,NW,321,0.0,3.0,85,0.00,,,0.00,,2015-01-28 08:42:00,
2015-01-28 03:52:00,54.0,49.0,30.04,NW,323,0.0,3.0,84,0.00,,,0.00,,2015-01-28 08:52:00,
2015-01-28 04:12:00,54.0,49.0,30.05,North,355,1.0,4.0,83,0.00,,,0.00,,2015-01-28 09:12:00,
2015-01-28 04:22:00,54.0,49.0,30.04,NNW,331,1.0,5.0,83,0.00,,,0.00,,2015-01-28 09:22:00,
2015-01-28 04:44:00,53.0,48.0,30.05,NNW,328,0.0,2.0,83,0.00,,,0.00,,2015-01-28 09:44:00,
2015-01-28 04:53:00,53.0,48.0,30.06,NNW,327,0.0,5.0,82,0.00,,,0.00,,2015-01-28 09:53:00,
2015-01-28 05:13:00,52.0,47.0,30.06,NW,309,0.0,5.0,82,0.00,,,0.00,,2015-01-28 10:13:00,
2015-01-28 05:23:00,52.0,46.0,30.06,NNW,327,0.0,3.0,80,0.00,,,0.00,,2015-01-28 10:23:00,
2015-01-28 05:53:00,52.0,45.0,30.08,NNE,12,1.0,6.0,76,0.00,,,0.00,,2015-01-28 10:53:00,
2015-01-28 06:13:00,52.0,44.0,30.08,NW,315,1.0,5.0,75,0.00,,,0.00,,2015-01-28 11:13:00,
2015-01-28 06:23:00,51.0,43.0,30.09,NNW,327,0.0,3.0,74,0.00,,,0.00,,2015-01-28 11:23:00,
2015-01-28 06:42:00,51.0,43.0,30.09,NW,321,0.0,5.0,73,0.00,,,0.00,,2015-01-28 11:42:00,
2015-01-28 06:52:00,51.0,44.0,30.10,NNW,346,0.0,5.0,76,0.00,,,0.00,,2015-01-28 11:52:00,
2015-01-28 07:12:00,51.0,44.0,30.11,NNW,329,0.0,4.0,76,0.00,,,0.00,,2015-01-28 12:12:00,
2015-01-28 07:22:00,50.0,42.0,30.11,NNW,332,0.0,3.0,75,0.00,,,0.00,,2015-01-28 12:22:00,
2015-01-28 07:42:00,50.0,42.0,30.11,NW,310,0.0,2.0,75,0.00,,,0.00,,2015-01-28 12:42:00,
2015-01-28 07:53:00,50.0,43.0,30.12,NW,309,0.0,2.0,76,0.00,,,0.00,,2015-01-28 12:53:00,
2015-01-28 08:22:00,52.0,43.0,30.13,NNW,327,1.0,5.0,71,0.00,,,0.00,,2015-01-28 13:22:00,
2015-01-28 08:42:00,54.0,44.0,30.14,NW,319,1.0,6.0,68,0.00,,,0.00,,2015-01-28 13:42:00,
2015-01-28 08:52:00,55.0,43.0,30.14,NNW,327,1.0,8.0,64,0.00,,,0.00,,2015-01-28 13:52:00,
2015-01-28 09:12:00,56.0,42.0,30.15,NW,326,2.0,8.0,59,0.00,,,0.00,,2015-01-28 14:12:00,
2015-01-28 09:22:00,57.0,41.0,30.15,NNE,15,3.0,6.0,54,0.00,,,0.00,,2015-01-28 14:22:00,
2015-01-28 09:42:00,58.0,40.0,30.16,NNW,330,2.0,9.0,52,0.00,,,0.00,,2015-01-28 14:42:00,
2015-01-28 09:52:00,59.0,41.0,30.16,NNW,329,2.0,8.0,51,0.00,,,0.00,,2015-01-28 14:52:00,
2015-01-28 10:22:00,60.0,40.0,30.17,NW,320,2.0,13.0,47,0.00,,,0.00,,2015-01-28 15:22:00,
2015-01-28 10:55:00,61.0,39.0,30.18,NNW,342,2.0,10.0,44,0.00,,,0.00,,2015-01-28 15:55:00,
2015-01-28 11:14:00,61.0,38.0,30.18,NNW,344,4.0,12.0,42,0.00,,,0.00,,2015-01-28 16:14:00,
2015-01-28 11:23:00,62.0,39.0,30.18,NNE,29,2.0,9.0,42,0.00,,,0.00,,2015-01-28 16:23:00,
2015-01-28 11:44:00,63.0,38.0,30.17,North,355,4.0,9.0,40,0.00,,,0.00,,2015-01-28 16:44:00,
2015-01-28 11:54:00,63.0,38.0,30.17,NNW,332,4.0,11.0,39,0.00,,,0.00,,2015-01-28 16:54:00,
2015-01-28 12:13:00,65.0,39.0,30.16,NNE,30,2.0,7.0,38,0.00,,,0.00,,2015-01-28 17:13:00,
2015-01-28 12:22:00,65.0,37.0,30.16,NW,311,2.0,9.0,36,0.00,,,0.00,,2015-01-28 17:22:00,
2015-01-28 12:43:00,65.0,38.0,30.15,East,94,1.0,9.0,37,0.00,,,0.00,,2015-01-28 17:43:00,
2015-01-28 12:53:00,66.0,38.0,30.15,NW,325,2.0,8.0,35,0.00,,,0.00,,2015-01-28 17:53:00,
2015-01-28 13:23:00,66.0,36.0,30.14,North,355,1.0,9.0,33,0.00,,,0.00,,2015-01-28 18:23:00,
2015-01-28 13:42:00,66.0,34.0,30.13,West,274,2.0,7.0,31,0.00,,,0.00,,2015-01-28 18:42:00,
2015-01-28 13:54:00,67.0,36.0,30.12,NNW,347,1.0,4.0,32,0.00,,,0.00,,2015-01-28 18:54:00,
2015-01-28 14:24:00,67.0,35.0,30.11,NE,34,1.0,5.0,30,0.00,,,0.00,,2015-01-28 19:24:00,
2015-01-28 14:42:00,67.0,34.0,30.11,East,81,2.0,6.0,29,0.00,,,0.00,,2015-01-28 19:42:00,
2015-01-28 14:53:00,67.0,34.0,30.11,East,81,2.0,6.0,29,0.00,,,0.00,,2015-01-28 19:53:00,
2015-01-28 15:22:00,66.0,35.0,30.11,NNW,345,2.0,8.0,32,0.00,,,0.00,,2015-01-28 20:22:00,
2015-01-28 15:43:00,67.0,35.0,30.11,NW,323,1.0,6.0,31,0.00,,,0.00,,2015-01-28 20:43:00,
2015-01-28 15:53:00,67.0,35.0,30.11,NW,323,1.0,6.0,31,0.00,,,0.00,,2015-01-28 20:53:00,
2015-01-28 16:12:00,66.0,34.0,30.11,NW,323,1.0,4.0,31,0.00,,,0.00,,2015-01-28 21:12:00,
2015-01-28 16:22:00,65.0,33.0,30.11,NNW,344,1.0,6.0,30,0.00,,,0.00,,2015-01-28 21:22:00,